Probability
0 16 42 48 58 55 61 61 68 65 65 65 58 61 65 61 52 52 39 42 32 32 26 26 19 16 16 10 16 10 3 3 6 3 3 0 3 0 0 3 0 0 10
0 13 45 45 58 52 58 55 61 61 61 58 52 58 55 55 52 48 42 42 35 32 29 29 23 19 13 16 6 10 3 3 6 3 0 0 0 0 0 0 0 0 3
0 23 42 42 45 45 52 55 48 48 55 55 52 58 55 55 48 48 45 42 42 35 32 26 26 16 16 10 3 6 3 0 3 3 0 0 0 0 0 0 0 0 0
6 13 19 45 45 42 42 42 39 42 48 55 55 48 48 52 48 52 45 42 42 39 26 26 23 23 10 6 6 3 0 0 0 0 0 0 0 3 0 0 3 0 0
6 13 16 39 32 39 39 39 29 35 42 42 52 45 55 48 55 48 42 48 42 35 29 26 23 19 10 6 6 3 0 0 0 0 0 0 0 3 3 3 6 3 0
3 6 13 29 32 32 35 35 26 26 29 29 42 45 48 52 48 52 48 45 39 35 29 23 19 13 10 6 6 3 0 0 0 0 0 0 0 3 6 3 6 3 3
6 6 16 29 32 32 26 32 23 23 19 19 26 32 45 48 48 48 48 39 35 35 32 26 16 13 13 6 6 6 3 0 0 0 0 0 0 0 6 3 6 3 3
3 6 13 29 32 32 29 29 29 26 23 23 26 23 39 52 48 45 39 35 32 32 29 29 19 13 13 10 6 6 0 0 0 0 0 0 0 0 0 3 6 3 3
3 6 13 26 23 19 23 26 23 26 26 26 29 29 32 32 32 35 39 32 32 35 29 29 26 16 16 16 6 6 0 0 0 0 0 0 0 0 0 0 3 3 3
3 3 3 13 10 6 6 13 16 16 19 19 19 13 3 3 10 16 23 29 29 32 29 26 29 23 19 13 10 3 0 0 0 0 0 0 0 3 0 0 0 3 3
3 3 3 3 3 0 0 3 3 6 6 3 3 0 0 0 0 6 10 13 19 29 26 29 23 23 6 3 3 0 0 0 0 0 0 0 0 3 3 3 0 0 3
6 3 3 3 3 0 0 0 3 0 0 0 0 0 0 0 0 0 3 3 13 10 10 13 16 10 3 0 0 0 0 0 0 0 0 0 0 6 3 3 3 0 0
0 0 0 0 3 3 0 0 0 0 0 0 0 0 0 0 0 0 0 3 3 0 0 6 3 3 3 0 0 0 0 0 0 0 0 0 0 3 3 3 0 0 0
0 0 0 0 0 3 0 0 0 0 0 0 0 0 0 0 0 0 0 3 3 0 0 0 0 0 0 0 0 0 0 0 0 0 0 0 0 3 3 3 3 6 0
0 0 0 0 0 0 0 0 0 0 0 0 0 0 0 0 0 0 0 0 3 0 0 0 0 0 0 0 0 0 0 0 0 0 0 0 0 3 3 10 3 3 6
0 0 0 0 0 0 0 0 0 0 0 0 0 0 0 0 0 0 0 0 0 0 0 0 0 0 0 0 0 0 0 0 0 0 0 0 0 0 6 3 6 3 3
0 0 0 0 0 0 0 0 0 0 0 0 0 0 0 0 0 0 0 0 0 0 0 0 0 0 0 0 0 0 0 0 0 0 0 0 0 0 0 6 3 3 6
0 0 0 0 0 0 0 0 0 0 0 0 0 0 0 0 0 0 0 0 0 0 0 0 0 0 0 0 0 0 0 0 0 0 0 0 0 0 0 0 0 0 3
0 0 0 0 0 0 0 0 0 0 0 0 0 0 0 0 0 0 0 0 0 0 0 0 0 0 0 0 0 0 0 0 0 0 0 0 0 0 0 0 0 0 3
0 0 0 0 0 0 0 0 0 3 3 3 0 0 0 0 0 0 0 0 0 0 0 0 0 0 0 0 0 0 0 0 0 0 0 0 0 0 0 0 0 0 0
0 0 0 0 0 0 0 0 3 3 3 3 0 0 0 0 0 0 0 0 0 0 0 0 0 0 0 0 0 0 0 0 0 0 0 0 0 0 0 0 0 0 0
0 0 0 0 0 0 0 0 3 3 3 3 0 0 0 0 0 0 0 0 0 0 0 0 0 0 0 0 0 0 0 0 0 0 0 0 0 0 0 0 0 0 0
0 0 0 0 0 0 3 0 3 3 3 0 0 0 0 0 0 0 0 0 0 0 0 0 0 0 0 0 0 0 0 0 0 0 0 0 0 0 0 0 0 0 0
0 0 0 0 0 0 0 0 0 3 0 0 0 0 0 0 0 0 0 0 0 0 0 0 0 0 0 0 0 0 0 0 0 0 0 0 0 0 0 0 0 0 0
0 0 0 0 0 0 0 0 0 0 0 0 0 0 0 0 0 0 0 0 0 0 0 0 0 0 0 0 0 0 0 0 0 0 0 0 0 0 0 0 0 0 0
0 0 0 0 0 0 0 0 0 0 0 0 0 0 0 0 0 0 0 0 0 0 0 0 0 0 0 0 0 0 0 0 0 0 0 0 0 0 0 0 0 0 0
Height
5842 5843 5844 5845 5846 5848 5849 5851 5852 5854 5855 5857 5858 5860 5861 5863 5864 5866 5867 5868 5870 5871 5872 5873 5874 5875 5876 5877 5878 5879 5880 5880 5881 5882 5882 5882 5882 5882 5882 5882 5882 5882 5882
5839 5840 5842 5843 5844 5846 5847 5849 5850 5852 5853 5855 5856 5858 5860 5861 5863 5864 5866 5867 5869 5870 5871 5872 5873 5874 5875 5876 5877 5878 5879 5880 5880 5881 5881 5882 5882 5882 5882 5882 5882 5882 5881
5836 5837 5839 5840 5842 5843 5845 5846 5848 5849 5851 5853 5855 5856 5858 5860 5861 5863 5864 5866 5867 5869 5870 5871 5872 5873 5874 5875 5876 5877 5878 5879 5880 5880 5881 5881 5881 5882 5881 5881 5881 5881 5881
5833 5834 5836 5837 5839 5840 5842 5843 5845 5847 5849 5850 5852 5854 5856 5857 5859 5861 5863 5864 5866 5867 5868 5870 5871 5872 5873 5874 5875 5876 5877 5878 5879 5879 5880 5880 5880 5881 5881 5881 5880 5880 5880
5829 5831 5832 5834 5835 5837 5839 5841 5842 5844 5846 5848 5850 5852 5853 5855 5857 5859 5860 5862 5864 5865 5867 5868 5869 5870 5871 5872 5874 5875 5876 5876 5877 5878 5879 5879 5879 5880 5880 5880 5880 5879 5879
5825 5827 5829 5830 5832 5834 5836 5838 5839 5841 5843 5845 5847 5849 5851 5853 5855 5856 5858 5860 5861 5863 5865 5866 5867 5868 5870 5871 5872 5873 5874 5875 5876 5876 5877 5877 5878 5878 5878 5878 5878 5878 5878
5821 5823 5825 5827 5828 5830 5832 5834 5836 5838 5840 5842 5844 5846 5848 5850 5852 5854 5855 5857 5859 5861 5862 5864 5865 5866 5867 5869 5870 5871 5872 5873 5874 5875 5875 5876 5876 5877 5877 5877 5877 5877 5876
5817 5819 5821 5823 5824 5826 5828 5831 5833 5835 5837 5839 5840 5842 5845 5847 5849 5851 5853 5854 5856 5858 5860 5861 5862 5863 5865 5866 5867 5869 5870 5871 5872 5872 5873 5874 5874 5875 5875 5875 5875 5875 5875
5811 5814 5816 5818 5820 5822 5824 5827 5829 5831 5833 5835 5837 5839 5841 5843 5845 5847 5849 5851 5853 5855 5856 5858 5859 5861 5862 5863 5865 5866 5867 5868 5869 5870 5871 5872 5872 5872 5873 5873 5873 5873 5873
5806 5808 5811 5813 5815 5817 5820 5822 5824 5827 5829 5831 5833 5835 5837 5839 5842 5844 5846 5848 5850 5852 5853 5855 5856 5858 5859 5860 5862 5863 5864 5865 5866 5867 5868 5869 5869 5870 5870 5870 5870 5870 5870
5800 5803 5805 5808 5810 5812 5815 5817 5819 5822 5824 5827 5829 5831 5833 5835 5837 5840 5842 5844 5846 5848 5850 5851 5853 5854 5856 5857 5858 5859 5861 5862 5863 5864 5865 5866 5866 5867 5867 5868 5868 5868 5867
5795 5797 5799 5802 5804 5807 5809 5811 5814 5817 5819 5822 5824 5826 5829 5831 5833 5835 5837 5839 5841 5844 5846 5847 5849 5850 5852 5853 5854 5856 5857 5858 5859 5860 5861 5862 5863 5864 5864 5864 5865 5865 5865
5789 5791 5793 5796 5798 5800 5803 5805 5808 5811 5813 5816 5819 5821 5823 5825 5828 5830 5832 5835 5837 5839 5841 5843 5845 5846 5848 5849 5850 5851 5853 5853 5855 5856 5857 5858 5859 5860 5861 5861 5861 5861 5862
5782 5784 5786 5789 5791 5794 5796 5799 5802 5805 5807 5810 5813 5815 5817 5819 5822 5824 5827 5829 5832 5834 5836 5838 5840 5841 5843 5844 5845 5846 5848 5849 5850 5851 5853 5854 5855 5856 5857 5857 5858 5858 5858
5775 5777 5780 5782 5784 5787 5789 5792 5795 5798 5801 5803 5806 5808 5811 5813 5815 5818 5821 5823 5826 5828 5830 5832 5834 5836 5837 5839 5840 5841 5843 5844 5846 5847 5849 5850 5851 5852 5853 5853 5854 5854 5854
5768 5770 5772 5775 5777 5780 5782 5785 5788 5790 5793 5796 5799 5801 5803 5806 5809 5811 5814 5817 5820 5822 5825 5827 5828 5830 5831 5833 5835 5836 5837 5839 5841 5843 5844 5846 5847 5848 5848 5849 5850 5850 5850
5760 5762 5765 5767 5770 5772 5775 5777 5780 5783 5786 5788 5791 5793 5796 5799 5802 5805 5808 5811 5814 5816 5818 5820 5822 5824 5826 5828 5829 5831 5832 5834 5836 5838 5840 5841 5842 5843 5844 5845 5845 5846 5846
5752 5755 5757 5759 5762 5764 5766 5769 5772 5775 5777 5780 5783 5785 5788 5791 5794 5798 5801 5804 5806 5809 5812 5814 5816 5818 5820 5822 5824 5826 5827 5829 5831 5833 5834 5836 5837 5838 5839 5840 5840 5841 5841
5744 5746 5749 5751 5753 5755 5758 5760 5763 5766 5769 5772 5774 5777 5780 5783 5787 5790 5794 5797 5799 5802 5805 5807 5809 5811 5813 5816 5818 5820 5822 5823 5825 5827 5829 5830 5832 5833 5834 5834 5835 5835 5836
5735 5738 5740 5743 5745 5747 5749 5751 5754 5757 5760 5763 5766 5768 5771 5774 5778 5782 5786 5789 5792 5795 5798 5800 5802 5804 5807 5809 5811 5813 5815 5817 5819 5820 5822 5824 5826 5827 5828 5828 5829 5830 5830
5727 5729 5732 5734 5736 5738 5740 5743 5745 5748 5751 5754 5757 5759 5762 5766 5770 5774 5777 5781 5784 5787 5789 5792 5795 5797 5800 5802 5804 5806 5808 5810 5812 5814 5816 5817 5819 5820 5821 5822 5823 5823 5824
5718 5720 5723 5725 5727 5729 5732 5734 5736 5739 5742 5745 5748 5750 5754 5757 5761 5765 5769 5772 5776 5779 5781 5784 5787 5790 5792 5794 5797 5799 5801 5804 5805 5807 5809 5811 5812 5813 5814 5814 5815 5816 5817
5708 5711 5713 5716 5718 5720 5722 5725 5727 5730 5733 5736 5738 5741 5744 5748 5752 5756 5760 5763 5766 5770 5773 5776 5778 5781 5784 5787 5789 5792 5794 5796 5798 5800 5802 5803 5804 5805 5806 5807 5808 5809 5809
5698 5701 5703 5706 5708 5710 5713 5715 5718 5721 5724 5727 5729 5732 5735 5739 5742 5746 5750 5754 5757 5761 5764 5767 5770 5773 5775 5778 5781 5783 5786 5788 5791 5792 5794 5795 5796 5798 5799 5800 5801 5801 5802
5687 5690 5692 5695 5698 5700 5703 5706 5708 5711 5714 5716 5719 5722 5725 5729 5733 5736 5740 5744 5747 5751 5754 5758 5761 5764 5767 5770 5772 5774 5777 5780 5782 5784 5786 5788 5789 5790 5791 5792 5793 5793 5794
5676 5679 5682 5684 5687 5690 5692 5695 5698 5701 5704 5706 5709 5712 5715 5718 5722 5726 5730 5733 5737 5741 5744 5748 5751 5754 5758 5761 5763 5766 5769 5771 5773 5775 5777 5779 5780 5782 5782 5783 5784 5785 5785
Wind_Speed
13 13 13 13 13 12 11 11 11 11 11 10 10 9 8 8 7 7 6 6 6 5 5 5 5 5 5 5 4 4 3 3 2 2 1 1 2 2 3 3 4 5 6
15 14 14 14 14 14 13 12 12 12 12 12 11 10 10 9 8 8 7 7 7 6 6 6 6 6 6 6 6 5 4 4 4 3 3 2 2 2 3 3 4 4 5
17 16 16 15 15 15 14 14 14 13 13 13 12 12 11 10 10 9 9 8 8 8 7 7 7 7 7 7 7 6 5 5 5 4 4 4 3 3 3 4 4 4 5
17 17 17 16 16 16 16 15 15 14 14 13 13 13 13 12 11 10 10 10 9 9 8 8 8 8 8 7 7 7 7 6 6 5 5 5 4 4 3 4 4 5 5
18 18 18 17 17 17 16 16 16 16 15 15 15 14 14 13 13 12 11 11 10 10 9 9 9 8 9 8 8 8 8 7 7 7 6 6 5 5 5 4 4 5 6
20 19 19 18 18 18 18 17 17 17 17 16 16 16 15 15 14 14 13 12 12 11 10 10 10 10 10 10 9 9 9 9 8 8 7 7 7 6 6 6 6 6 7
22 21 21 20 19 19 19 18 18 18 17 17 16 17 17 16 15 15 15 14 13 12 12 12 11 11 11 11 11 11 11 10 10 9 9 8 8 8 8 8 8 8 8
23 23 22 22 21 21 20 20 19 19 19 18 17 17 17 17 17 16 16 16 15 14 13 13 13 13 13 12 12 12 12 12 11 11 10 10 10 10 9 9 9 10 10
25 24 24 24 24 23 22 22 21 21 20 20 19 19 19 19 18 18 18 17 16 16 15 14 14 14 14 14 13 13 13 13 13 12 12 11 11 11 11 11 11 11 11
26 26 26 26 26 25 24 24 23 23 22 21 21 20 20 20 20 19 19 19 18 18 17 16 15 15 15 15 15 14 14 14 14 14 14 13 13 13 12 12 12 12 12
28 28 27 27 27 27 26 26 25 24 24 24 23 22 22 21 21 21 20 20 20 20 19 18 17 17 16 16 16 16 16 16 17 16 16 15 15 14 14 14 13 13 13
30 30 29 29 29 29 28 28 27 26 26 25 25 24 24 23 23 23 22 22 21 21 21 20 19 18 18 17 17 17 17 18 18 18 17 17 17 16 16 15 15 15 14
31 31 32 32 31 31 30 30 30 29 28 27 27 27 26 26 25 25 24 23 23 22 22 22 21 20 19 19 19 19 19 19 18 18 18 18 18 17 17 17 17 16 16
31 31 32 33 33 33 32 32 32 31 31 30 29 29 29 28 27 26 26 26 25 24 24 23 23 22 21 21 21 21 20 20 19 19 19 18 18 18 18 18 17 17 16
32 32 32 33 33 33 33 33 32 33 33 32 31 31 31 30 29 29 28 27 27 26 25 25 24 24 23 22 22 21 21 20 20 20 19 19 19 19 19 19 18 18 18
32 32 33 33 34 34 34 34 33 33 33 33 33 33 33 33 32 31 30 30 29 28 27 26 25 25 24 23 22 22 21 21 21 21 20 20 20 20 20 20 20 20 20
34 34 34 34 35 35 36 35 35 35 34 34 34 34 34 34 34 33 32 32 31 30 29 28 27 27 26 25 25 24 23 23 22 22 21 21 22 21 21 21 21 21 21
36 36 36 35 35 35 36 36 37 37 37 36 36 36 36 36 35 34 34 34 33 33 31 30 30 29 28 28 27 26 25 25 25 24 23 23 23 23 23 22 22 23 23
37 37 37 37 36 36 36 36 37 38 38 38 38 37 38 38 37 36 35 35 35 34 33 33 32 31 30 30 29 28 28 27 27 26 26 26 26 25 25 25 24 25 25
38 37 38 38 38 37 37 38 38 38 38 38 39 39 39 39 39 38 37 38 37 36 35 35 34 33 32 32 32 31 30 29 29 28 28 28 28 27 27 27 27 27 27
38 38 38 38 39 39 38 38 39 38 38 39 39 40 40 41 41 40 39 39 39 38 36 37 36 35 34 33 33 33 32 32 31 30 30 29 29 30 30 29 29 29 29
39 39 39 39 39 40 40 40 40 40 39 39 39 40 41 42 43 43 42 41 40 40 38 37 38 37 36 36 36 35 34 33 32 31 32 31 31 31 31 31 31 31 31
41 41 40 40 40 41 41 41 41 40 40 40 40 41 42 42 43 44 43 43 43 42 41 40 40 39 38 38 38 37 36 36 33 33 33 33 33 33 33 33 33 33 33
42 42 42 41 42 42 41 41 41 40 40 40 41 42 42 43 43 43 44 44 44 43 42 42 42 42 41 41 40 40 39 38 36 35 35 35 34 34 34 35 35 35 35
43 43 43 43 43 43 42 42 42 40 41 41 42 42 42 43 44 44 45 45 45 44 43 43 43 43 42 42 42 41 40 40 38 36 36 36 36 36 36 36 37 37 38
43 44 44 44 43 43 43 43 42 42 42 42 42 43 43 43 44 44 45 46 45 45 44 43 43 43 42 41 41 42 41 41 40 39 38 38 38 38 38 38 38 39 39
Wind_Direction
237 236 236 238 238 237 235 234 231 226 223 219 215 210 206 206 210 211 211 214 217 219 220 223 224 225 227 229 231 236 238 233 243 263 288 329 356 1 358 359 5 4 7
238 238 237 238 238 238 237 236 236 231 228 225 220 215 213 212 215 218 221 223 226 228 229 230 232 234 235 235 239 242 246 248 252 261 273 291 316 335 345 346 348 349 354
239 240 239 238 238 238 237 236 236 235 232 229 224 220 219 218 219 222 225 228 231 233 234 236 237 237 239 239 241 244 247 251 254 261 270 278 293 311 328 333 337 342 349
239 240 241 240 240 239 239 238 236 236 236 232 227 225 224 223 223 226 228 231 234 236 238 240 241 241 241 242 243 245 247 250 254 260 266 272 281 291 309 322 327 332 337
240 240 241 241 241 241 239 238 237 236 235 233 231 229 228 227 226 229 232 234 237 239 240 243 245 246 244 244 245 247 249 249 253 259 264 269 274 279 292 304 313 321 328
241 241 241 240 241 241 240 239 238 238 236 234 234 232 231 230 229 231 234 236 238 240 243 245 247 247 247 248 248 250 250 252 255 259 263 269 272 275 283 292 300 308 316
243 242 242 241 240 240 240 239 239 238 238 236 234 234 233 233 232 233 235 237 239 241 243 246 247 248 249 251 252 252 250 253 258 260 261 267 272 275 279 285 291 298 304
243 242 241 241 240 240 239 238 239 239 238 237 237 236 236 236 235 235 235 237 239 242 244 246 249 250 251 252 254 254 253 253 257 260 261 265 271 274 277 281 287 292 299
244 242 241 241 241 240 239 239 238 239 238 238 239 239 239 239 238 237 237 238 241 243 245 247 250 253 252 251 253 255 255 255 256 259 262 265 269 273 276 281 286 290 293
244 242 242 241 241 241 241 240 239 239 239 239 239 240 241 241 240 240 239 240 242 244 246 248 250 253 254 254 254 253 256 258 258 260 262 266 268 271 275 280 285 287 288
243 242 243 242 241 241 241 241 241 240 240 240 239 240 241 242 241 241 242 242 242 244 247 249 251 254 255 255 255 254 257 260 260 261 263 265 267 270 273 277 281 284 286
243 243 244 243 242 242 242 242 242 241 241 240 240 240 241 242 242 241 241 243 244 244 247 248 251 254 256 256 257 257 258 261 262 261 262 263 265 268 272 273 276 280 283
244 244 246 245 243 243 243 243 243 242 242 242 242 241 241 242 242 242 242 243 244 245 246 248 250 252 255 256 257 258 259 260 260 261 261 261 263 267 270 271 273 277 280
246 246 246 245 245 244 244 244 243 243 243 243 243 242 241 242 242 243 242 243 244 245 247 248 249 251 254 256 259 259 258 257 258 259 260 261 263 266 268 270 271 275 277
247 246 246 245 245 245 245 243 244 243 244 243 243 243 243 242 242 243 242 242 243 245 246 249 250 251 252 254 256 258 257 256 257 256 258 261 263 265 267 269 271 274 277
247 246 245 245 245 245 245 245 244 244 244 244 244 244 243 242 243 243 242 241 242 244 245 247 250 250 251 251 253 256 256 254 254 254 257 260 263 266 267 268 270 273 276
247 247 248 247 247 246 245 245 244 244 244 245 245 245 244 243 243 243 241 241 242 244 245 247 250 250 249 251 252 254 254 254 254 253 256 260 262 265 267 268 269 272 275
248 248 249 249 249 249 247 246 246 245 246 245 245 245 244 243 242 243 242 241 242 243 245 248 249 249 249 250 252 252 253 254 254 254 257 259 261 263 266 268 269 272 275
250 250 250 251 250 250 248 247 247 247 247 246 245 245 244 243 242 242 243 242 243 244 245 247 248 248 249 250 250 251 253 252 252 254 257 258 259 261 264 267 269 271 275
251 251 251 250 250 251 251 250 248 248 247 247 246 245 244 243 241 241 242 242 242 244 246 247 247 248 248 249 249 251 251 251 251 255 257 258 259 261 263 265 267 270 273
251 252 252 251 251 251 251 250 249 248 248 248 247 245 243 242 241 241 242 243 243 245 246 245 246 247 248 249 249 250 250 250 252 256 257 259 262 261 263 265 267 268 272
252 252 252 252 252 252 251 251 249 249 249 248 247 246 244 243 242 241 243 243 244 245 246 246 246 247 248 249 249 249 249 250 253 256 258 261 262 263 263 264 266 268 270
252 252 252 252 251 251 252 252 252 251 250 249 248 247 245 244 244 243 243 245 246 246 247 247 248 249 248 248 248 248 249 250 254 256 258 260 262 262 264 265 267 268 270
252 252 252 251 251 251 252 253 252 252 252 251 249 248 246 245 244 244 244 245 246 246 247 247 248 250 250 248 248 248 249 251 254 256 258 259 260 262 264 265 266 267 269
252 252 252 252 251 251 251 252 252 251 251 251 249 247 246 246 245 244 245 245 245 246 247 247 248 250 251 250 248 248 249 251 253 256 257 259 260 261 263 265 267 268 269
251 252 252 252 252 251 251 251 251 250 250 250 249 247 246 246 245 245 245 244 244 245 246 247 248 249 250 250 248 249 251 252 254 255 257 259 260 262 264 266 268 269 270